UPS429 UWGG-USSS

Flight info

Callsign UPS429
Flight time N/A
Altitude 35000
Route PESAB2S PESAB T765 GEMKI L94 LOMBI LOMBI6R
Aircraft A306/H-SDE3FGHIRWY/LB1

Departure

Time 2026-05-08 23:42
Airport Nizhny Novgorod / Strigino International Airport (UWGG)

Arrival

Time N/A
Airport Koltsovo Airport (USSS)
Time Latitude Longitude Altitude Speed Heading
2026-05-08 23:39 56.21933 43.78407 273 ft 0 kts 281°
2026-05-08 23:40 56.21938 43.78365 273 ft 10 kts 282°
2026-05-08 23:40 56.21954 43.78257 272 ft 7 kts 302°
2026-05-08 23:40 56.21990 43.78223 273 ft 5 kts 353°
2026-05-08 23:40 56.22037 43.78232 273 ft 0 kts 13°
2026-05-08 23:41 56.22047 43.78236 273 ft 12 kts 13°
2026-05-08 23:41 56.22200 43.78294 272 ft 6 kts 11°
2026-05-08 23:41 56.22280 43.78323 273 ft 41 kts 11°
2026-05-08 23:41 56.22812 43.78519 273 ft 112 kts 12°
2026-05-08 23:42 56.23769 43.78857 324 ft 164 kts 11°
2026-05-08 23:42 56.24919 43.79306 1014 ft 174 kts 13°
2026-05-08 23:42 56.26120 43.79847 1944 ft 177 kts 11°
2026-05-08 23:42 56.27357 43.80279 2761 ft 191 kts 10°
2026-05-08 23:43 56.28765 43.80753 3083 ft 219 kts 10°
2026-05-08 23:43 56.30320 43.81294 3617 ft 234 kts 10°
2026-05-08 23:43 56.31936 43.81875 4583 ft 238 kts 10°
2026-05-08 23:43 56.33554 43.82559 5670 ft 240 kts 11°
2026-05-08 23:44 56.35203 43.83171 6686 ft 245 kts
2026-05-08 23:44 56.36898 43.83759 7611 ft 253 kts
2026-05-08 23:44 56.38609 43.84760 8545 ft 267 kts 21°
2026-05-08 23:44 56.40103 43.86913 9451 ft 289 kts 44°
2026-05-08 23:45 56.41015 43.90298 10243 ft 316 kts 72°
2026-05-08 23:45 56.41054 43.94455 10610 ft 348 kts 95°
2026-05-08 23:45 56.40591 43.98894 10905 ft 371 kts 100°
2026-05-08 23:45 56.40044 44.03575 11190 ft 391 kts 100°
2026-05-08 23:46 56.39489 44.08491 11519 ft 407 kts 100°
2026-05-08 23:46 56.38935 44.13554 12056 ft 416 kts 99°
2026-05-08 23:46 56.38377 44.18646 12665 ft 422 kts 101°
2026-05-08 23:46 56.37290 44.23576 13280 ft 428 kts 122°
2026-05-08 23:47 56.35473 44.27838 13952 ft 430 kts 133°
2026-05-08 23:47 56.33504 44.31925 14528 ft 434 kts 134°
2026-05-08 23:47 56.31526 44.36068 15127 ft 438 kts 133°
2026-05-08 23:47 56.29548 44.40282 15725 ft 442 kts 133°
2026-05-08 23:48 56.27576 44.44529 16399 ft 444 kts 133°
2026-05-08 23:48 56.25595 44.48816 16995 ft 448 kts 133°
2026-05-08 23:48 56.23598 44.53145 17594 ft 452 kts 133°
2026-05-08 23:48 56.21584 44.57513 18175 ft 456 kts 133°
2026-05-08 23:49 56.19553 44.61915 18697 ft 459 kts 133°
2026-05-08 23:49 56.17507 44.66344 19169 ft 463 kts 133°
2026-05-08 23:49 56.15441 44.70808 19626 ft 467 kts 133°
2026-05-08 23:49 56.13356 44.75308 20084 ft 470 kts 133°
2026-05-08 23:50 56.11258 44.79827 20522 ft 473 kts 133°
2026-05-08 23:50 56.09147 44.84367 20989 ft 475 kts 133°
2026-05-08 23:50 56.07026 44.88919 21439 ft 478 kts 133°
2026-05-08 23:50 56.04936 44.93570 21864 ft 483 kts 129°
2026-05-08 23:51 56.03164 44.98717 22285 ft 490 kts 119°
2026-05-08 23:51 56.01922 45.04414 22707 ft 495 kts 107°
2026-05-08 23:51 56.01285 45.10479 23109 ft 499 kts 95°
2026-05-08 23:51 56.01219 45.16692 23506 ft 501 kts 87°
2026-05-08 23:52 56.01391 45.22922 23848 ft 504 kts 84°
2026-05-08 23:52 56.01668 45.29176 24179 ft 506 kts 83°
2026-05-08 23:52 56.01982 45.35448 24511 ft 508 kts 83°
2026-05-08 23:52 56.02294 45.41739 24827 ft 510 kts 83°
2026-05-08 23:53 56.02588 45.48059 25170 ft 510 kts 84°
2026-05-08 23:53 56.02865 45.54396 25484 ft 512 kts 84°
2026-05-08 23:53 56.03126 45.60759 25770 ft 514 kts 84°
2026-05-08 23:53 56.03377 45.67145 26059 ft 516 kts 84°
2026-05-08 23:54 56.03622 45.73559 26339 ft 518 kts 85°
2026-05-08 23:54 56.03863 45.79996 26614 ft 520 kts 85°
2026-05-08 23:54 56.04101 45.86458 26889 ft 521 kts 85°
2026-05-08 23:55 56.04572 45.99444 27403 ft 525 kts 85°
2026-05-08 23:55 56.04804 46.05967 27648 ft 526 kts 85°
2026-05-08 23:55 56.05034 46.12509 27933 ft 528 kts 85°
2026-05-08 23:55 56.05261 46.19073 28177 ft 529 kts 85°
2026-05-08 23:56 56.05485 46.25637 28539 ft 528 kts 85°
2026-05-08 23:56 56.05705 46.32188 28894 ft 527 kts 85°
2026-05-08 23:56 56.05920 46.38706 29371 ft 523 kts 85°
2026-05-08 23:56 56.06131 46.45196 29764 ft 522 kts 85°
2026-05-08 23:57 56.06335 46.51673 30109 ft 522 kts 86°
2026-05-08 23:57 56.06471 46.58159 30413 ft 521 kts 88°
2026-05-08 23:57 56.06548 46.64630 30742 ft 520 kts 88°
2026-05-08 23:57 56.06597 46.71097 31079 ft 519 kts 88°
2026-05-08 23:58 56.06637 46.77549 31409 ft 518 kts 88°
2026-05-08 23:58 56.06677 46.83981 31725 ft 517 kts 88°
2026-05-08 23:58 56.06719 46.90405 32054 ft 517 kts 88°
2026-05-08 23:58 56.06764 46.96851 32252 ft 519 kts 88°
2026-05-08 23:59 56.06809 47.03295 32563 ft 518 kts 88°
2026-05-08 23:59 56.06852 47.09732 32899 ft 517 kts 88°
2026-05-08 23:59 56.06893 47.16148 33243 ft 515 kts 88°
2026-05-08 23:59 56.06930 47.22543 33692 ft 511 kts 89°
2026-05-09 00:00 56.06964 47.28872 34142 ft 507 kts 89°
2026-05-09 00:00 56.06993 47.35176 34413 ft 506 kts 89°
2026-05-09 00:00 56.07020 47.41475 34665 ft 506 kts 89°
2026-05-09 00:00 56.07043 47.47776 34927 ft 506 kts 89°
2026-05-09 00:01 56.07064 47.54080 35038 ft 505 kts 89°
2026-05-09 00:01 56.07094 47.66374 35070 ft 493 kts 89°
2026-05-09 00:02 56.07112 47.78691 35067 ft 495 kts 89°
2026-05-09 00:02 56.07118 47.90980 35048 ft 493 kts 89°
2026-05-09 00:03 56.07114 48.03264 35024 ft 493 kts 89°
2026-05-09 00:03 56.07101 48.15493 35042 ft 489 kts 90°
2026-05-09 00:04 56.07075 48.27658 35030 ft 488 kts 90°
2026-05-09 00:04 56.07037 48.39819 35062 ft 489 kts 90°
2026-05-09 00:05 56.06988 48.51999 35025 ft 491 kts 90°
2026-05-09 00:05 56.06925 48.64222 35020 ft 492 kts 90°
2026-05-09 00:06 56.06854 48.76456 35021 ft 491 kts 90°
2026-05-09 00:06 56.06769 48.88679 35002 ft 491 kts 90°
2026-05-09 00:07 56.06671 49.00865 35013 ft 488 kts 91°
2026-05-09 00:07 56.06561 49.13013 35009 ft 488 kts 91°
2026-05-09 00:08 56.06438 49.25159 35006 ft 489 kts 91°
2026-05-09 00:08 56.06305 49.37259 35004 ft 490 kts 91°
2026-05-09 00:09 56.06157 49.49526 35005 ft 490 kts 91°
2026-05-09 00:09 56.06000 49.61631 34997 ft 490 kts 91°
2026-05-09 00:10 56.05830 49.73809 34989 ft 490 kts 91°
2026-05-09 00:10 56.05648 49.85968 34990 ft 488 kts 91°
2026-05-09 00:11 56.05455 49.98111 34992 ft 489 kts 92°
2026-05-09 00:11 56.05250 50.10270 34981 ft 489 kts 92°
2026-05-09 00:12 56.05034 50.22443 34977 ft 490 kts 92°
2026-05-09 00:12 56.04805 50.34614 34977 ft 489 kts 92°
2026-05-09 00:13 56.04562 50.46865 34971 ft 490 kts 92°
2026-05-09 00:13 56.04311 50.58948 34953 ft 489 kts 92°
2026-05-09 00:14 56.04047 50.71080 34974 ft 488 kts 92°
2026-05-09 00:14 56.03775 50.83215 34960 ft 489 kts 92°